Location: Pine Mountain Observatory
(43.7910°N, 120.9377°W)
Time: 05:21:10
(UTC-08:00)

Cosmos 1867 - Visible Passes

Search period start: 24 January 2017 00:00
Search period end: 03 February 2017 00:00
Orbit: 775 x 800 km, 65.0° (Epoch: 24 January)

Date Brightness Start Highest point End Pass type
(mag) Time Alt. Az. Time Alt. Az. Time Alt. Az.
24 Jan 3.9 19:13:00 10° NNW 19:17:51 48° NNE 19:17:51 48° NNE visible
24 Jan 6.1 20:57:05 10° NW 20:58:33 17° WNW 20:58:33 17° WNW visible
25 Jan 4.1 18:41:27 10° NNW 18:46:34 38° NE 18:47:54 33° ENE visible
25 Jan 5.2 20:25:09 10° NW 20:28:37 31° W 20:28:37 31° W visible
26 Jan 4.4 18:09:56 10° NNW 18:14:46 30° NE 18:18:09 17° E visible
26 Jan 4.2 19:53:19 10° NW 19:58:36 51° WSW 19:58:54 50° SW visible
27 Jan 4.7 17:38:27 10° NNW 17:42:55 25° NE 17:47:20 10° E visible
27 Jan 3.8 19:21:34 10° NW 19:27:01 69° WSW 19:29:29 33° SSE visible
28 Jan 3.5 18:49:53 10° NW 18:55:24 89° ENE 19:00:32 11° SSE visible
28 Jan 6.3 20:35:32 10° WNW 20:38:11 14° WSW 20:40:49 10° SW visible
29 Jan 3.5 18:18:16 10° NNW 18:23:43 68° NE 18:29:08 10° SE visible
29 Jan 6.0 20:03:01 10° WNW 20:06:45 19° WSW 20:10:29 10° SSW visible
30 Jan 3.8 17:46:40 10° NNW 17:52:01 52° NE 17:57:19 10° SE visible
30 Jan 5.6 19:30:51 10° WNW 19:35:18 26° WSW 19:39:43 10° SSW visible
31 Jan 5.2 18:58:53 10° NW 19:03:47 35° WSW 19:08:40 10° S visible
01 Feb 4.7 18:27:02 10° NW 18:32:15 48° WSW 18:37:26 10° S visible
02 Feb 4.1 17:55:16 10° NW 18:00:41 65° WSW 18:06:02 10° SSE visible
